[Date Prev][Date Next][Thread Prev][Thread Next][Date Index][Thread Index]

[jamsat-news:1041] jas2info #122



=========================   最新情報   ==============================

        Last updated :Sat.6-Mar.-1999 14:30 (JST) #122

====================================================================
   
     衛星情報 FOシリーズの軌道要素、テレメトリ、QSOの状況等を
   まとめてみました.

  1)  FO−29(ふじ3号)はJARLのホームページの予告どうり3月6日 
     (土)の13:16(JST)からのパスではJAアナログ運用されており
     ました.テレメトリは力強くRS59+10dBで安定して聞こえました.
       
 ■ 軌道要素1:「jamsatーkeps:867」より
                 SB KEPS @ AMSAT  $ORB99064.N
                 2Line Orbital Elements 99064.AMSAT

  HR AMSAT ORBITAL ELEMENTS FOR AMATEUR SATELLITES IN NASA FORMAT
  FROM WA5QGD FORT WORTH,TX March 5, 1999
  SEND SUBSCRIBE/UNSUBSCRIBE TO majordomo@amsat.org ONLY
  BID: ORB99064.N
     
  DECODE 2-LINE ELSETS WITH THE FOLLOWING KEY:
  1 AAAAAU 00  0  0 BBBBB.BBBBBBBB  .CCCCCCCC  00000-0  00000-0 0  DDDZ
  2 AAAAA EEE.EEEE FFF.FFFF GGGGGGG HHH.HHHH III.IIII JJ.JJJJJJJJKKKKKZ
  KEY: A-CATALOGNUM B-EPOCHTIME C-DECAY D-ELSETNUM E-INCLINATION F-RAAN
  G-ECCENTRICITY H-ARGPERIGEE I-MNANOM J-MNMOTION K-ORBITNUM Z-CHECKSUM

  TO ALL RADIO AMATEURS BT

   FO-29
   1 24278U 96046B   99062.88086394  .00000078  00000-0  11647-3 0 02507
   2 24278 098.5454 028.1601 0351920 006.9889 353.5980 13.52662556125572
 
 ■ 軌道要素2:「jamsatーkeps:868」より
                 SB KEPS @ AMSAT  $ORB99064.O
                 Orbital Elements  99064.OSCAR

  HR AMSAT ORBITAL ELEMENTS FOR OSCAR SATELLITES
  FROM WA5QGD FORT WORTH,TX March 5, 1999
  SEND SUBSCRIBE/UNSUBSCRIBE TO majordomo@amsat.org ONLY
  BID: ORB99064.O
  TO ALL RADIO AMATEURS BT

  Satellite: FO-29
  Catalog number: 24278
  Epoch time:      99062.88086394
  Element set:    0250
  Inclination:      098.5454 deg
  RA of node:       028.1601 deg
  Eccentricity:    0.0351920
  Arg of perigee:   006.9889 deg
  Mean anomaly:     353.5980 deg
  Mean motion:   13.52662556 rev/day
  Decay rate:        7.8e-07 rev/day^2
  Epoch rev:           12557
  Checksum:              346
 -----------------------------------------------------------
 2)FO−29(ふじ3号)の 3月6日(土)のJAアナログテレメトリの
    一部分は次のようになっていました.
 
  AS12589C1   6MAR99
  JST  43:20 - 13:27

  HI HI AE C7 8D I5 1A 52 FF 0D 00 00 44 9F 76 60 94 91 B0 8A A4 A0 A3 A3 A1
  HI HI AE C7 88 55 00 52 FF 0D 00 00 2C 92 75 60 94 91 B0 87 A3 A1 A3 A3 A1 
  HI HI AE C7 88 55 05 52 FF 0D 00 00 3C 89 7F 60 94 91 B0 6A A3 A1 A2 A3 A1 
  HI HI AE C7 88 55 0A 52 FF 0D 00 00 7E 95 71 60 94 91 B0 92 A3 A0 A2 A3 A1 
  HI HI AE C7 88 55 0E 52 FF 0D 00 00 7A 77 7B 6O 94 91 B0 CD A3 A0 A2 A3 A1 
  HI HI AE C7 88 55 15 52 FF 0D 00 00 35 89 71 60 94 91 B0 5F A3 A0 A2 A2 A0
  HI HI AE C7 88 55 1A 52 FF 0D 00 00 AF 72 73 60 94 91 B0 80 A3 A0 A2 A2 A0 
  HI HI AE C7 88 55 1F 52 FF 0D 00 00 2C 72 76 60 94 91 B0 8F A3 A0 A2 A2 A1 
  HI HI AE C7 88 55 04 52 FF 0D 00 00 88 6D 67 60 94 91 B0 9C A3 A0 A2 A2 A1 
 
3)  JAアナログテレメトリの最後の一行の換算例.

   テレメトリ	内   容	       換算値   単 位
 3C	磁気センサーZ軸	=	66666.6	nT
 3D	磁気センサX軸	=	53431.4	nT
 4A	太陽電池発生電流	=	 1009.8	mA
 4B	B充放電電流	= 	 -118.4	mA
 4C	B端子電圧	=	   15.9	V
 4D	B中間端子電圧	=	    7.0	V
 5A	バス電圧	        =	   17.3	V
 5B	JTA送信電力	=  	  915.9	mW
 5C 	構体温度1	=	   18.6	℃
 5D	構体温度2	=	   19.7	℃
 6A	構体温度3	=	   19.0	℃
 6B	構体温度4	=	   19.0	℃
 6C	Bセル温度	=	   19.4	℃
 
  
 *計算処理は OFFICE 97 を使用.
 
=====================  FO/29(JAS−2)の訂正======================

    JAS2INFO #120、#121のデジトーカで「郭公の鳴き声」とありましたが
  「うぐいすの鳴き声」の誤りでした、この事についてJE9PEL/1 脇田 美根夫氏が
   [jamsat-bb:422]に投稿されてましたのでご紹介します.
 
 FO-29のデジトーカは、以前は『カッコー』の鳴き声でしたが、
 本日(3/2)聞いたところ綺麗な『ウグイス』の鳴き声でした。
 違法FM局を押し退け、女性の声と『ウグイス』の声が何度も
 繰り返し聞こえておりました。(435.910MHz FM)

★ This is JAS-2. ホーホケキョ! This is JAS-2. ホーホケキョ!.....

 ----------------------------------------------
 Name : JE9PEL/1 脇田
 Mail : JE9PEL@jamsat.or.jp
 URL  : http://www.ne.jp/asahi/hamradio/je9pel/
 QTH  : Yokohama, Japan
 Date : 2 Mar. 1999
 ----------------------------------------------
===============================================================================

  4)FO−20(ふじ2号)のCWテレメトリは1月30日(土)19:37(JST)の
     パスではやはり単一トーンの連続音から唸りを伴った連続音になっいましたがQSOは
     通常どうり使え、JA7CIA局等のCQが聞こえました.
---------------------------------------------------------------------------

 ■ 軌道要素1 :出典は「ふじ3号」に同じ. 
  
 FO-20
  1 20480U 90013C   99063.16250546  .00000025  00000-0  12408-3 0 01316
  2 20480 099.0352 277.8353 0541143 042.6342 321.5467 12.83250316424861

 ■ 軌道要素2 :出典は「ふじ3号」に同じ.  
               
  Satellite: FO-20
  Catalog number: 20480
  Epoch time:      99063.16250546
  Element set:    0131
  Inclination:      099.0352 deg
  RA of node:       277.8353 deg
  Eccentricity:    0.0541143
  Arg of perigee:   042.6342 deg
  Mean anomaly:     321.5467 deg
  Mean motion:   12.83250316 rev/day
  Decay rate:        2.5e-07 rev/day^2
  Epoch rev:           42486
  Checksum:              280

  ====================    FO-20のQSOの状況 ==========================
  =====================================================================
 5)JARL のホームページに新しい運用追加予定が記載されていましたのでご紹介します.

        ■ ふじ3号/FO−29 ■  
  
  ふじ3号(JAS−2) 運用予定

  ☆☆デジトーカ運用をさらに3月1日〜5日,19日〜23日に運用決定☆☆ 
  *** 運用日程について ***     

   2月22日 〜 3月 1日  アナログ系運用
   ☆3月 1日 〜 3月  5日  デジトーカ運用(:FM音声メッセージ送信)
   3月 5日 〜 3月 8日  アナログ系運用   
  ☆3月 8日 〜 3月18日  デジタル系1200bps運用
   ☆3月19日 〜 3月23日  デジトーカ運用(:FM音声メッセージ送信)
   3月23日 〜 3月30日  アナログ系運用

  *** 運用予定の変更について ***    

 ☆:3月1日から5日までデジトーカ運用を急遽行うことが決 まりました。
  また,3月19日から3月23日も同様デジトーカ運用を行います。

   デジトーカの周波数は435.91MHzです。ハンディー機での受信も十分
 可能ですので是非トライして下さい。
 デジトーカを受信してJAS−2ベリカードをもらうぉ〜!!

        ■ ふじ2号/FO−20 ■      
            「ふじ2号」 現況                                                                                               
   JAS-1b/FO-20(ふじ2号)の不具合発生について
    JAS-1b(ふじ2号)のCWテレメトリ信号に,1997年10月12日12時
 (JST)の日本上空通過時,3桁の数字が繰り返されるはずが3個の長音の
  繰り返しとなっているという異常が発見されました。この不具合は次の通過時
  からは回復していましたが13日15時20分の通過時に再び観測されました。
  衛星のアナログ系中継モード動作は異常が無く,正常時のテレメトリ内容からは
  衛星の動作に異常は認められません。従って,直ちに衛星のミッションに影響す
  ることは無いと予想されますので,当面はアナログ系中継モードを継続します。
  衛星は既に打ち上げてから7年8ヶ月を経ておりますので,今後は監視を強化す
  る予定です。アマチュア各位のレポートをお待ちします.   
  
  以上  http://www.jarl.or.jp/Japanese/3_Fuji/jr1nvu.htm  より.
                                           
   =============   JAS-2 (ふじ3号)と現在までの情報   ===========  
  A.電話によるふじ3号の運用情報
      社団法人日本アマチュア連盟によるサービス
           TEL .   03− 3942 − 1000
  B.アマチュア無線FAXサービス
      JARLによるふじ3号の軌道情報(オービットカレンダー)
         FAX No.  03− 3233 −0055
  C.WWWブラウザで情報を簡単に見れる人のためにJAS−2
     ふじ3号の衛星としての運用されるまでの名前)の概要、打ち上げ
     までの状況、運用中における状況を説明したホームページを紹介し
     ておきます.
    1)社団法人日本アマチュア無線連盟(JARL)のホームページ

          http://www.jarl.or.jp/Japanese/3_Fuji/jr1nvu.htm
 
    2)宇宙開発事業団(NASDA)ホームページ 
          http://www.nasda.go.jp/
         打上げ衛星 :地球観測プラットフォーム技術衛星(ADEOS) 
                       アマチュア衛星3号(JAS-2)
          http://yyy.tksc.nasda.go.jp/Home/Press/Press-j/jas-2_j.html        

  D.JAMSATによる軌道情報の活用
        JAMSATのホームページまたはjamsat−kepsの軌道要素より
      衛星の軌道情報を得る.
     JAMSATホームページ
               URL    http://www.jamsat.or.jp
       上記ホームページでは各地で行われるアマチュア通信衛星に関する
      ミューティングのお知らせや世界のアマチュア衛星に関する情報が
      満載されています.
   
 =========================================================================
       JAMSATのメンバーのご協力によりJH6MME(高山 秀造)が
    執筆・編集を担当しております.ご指摘の意見、疑問やこのようにしたら
    というアイデアがありましたら小さなことでもかまいませんので気軽に下
    記アドレスまでご連絡ください.jamsat−newsからjas2
    infoへの転載をJH4PHW局坂井さんに担当して頂いております.
                    Eーmail : jh6mme@jamsat.or.jp : jh4phw@jamsat.or.jp
 ===============================   END  ===============================